Regional Weather Roundup
Issued by NWS Sterling, VA

Home | Current Version | Previous Version | Text Only | Print | Product List | Glossary On
Versions: 1 2 3 4 5 6 7 8 9 10 11 12 13 14 15 16 17 18 19 20 21 22 23 24 25 26 27 28 29 30 31 32 33 34 35 36 37 38 39 40 41 42 43 44 45 46 47 48 49 50
000
ASUS41 KLWX 291110
RWRLWX

REGIONAL WEATHER ROUNDUP
NATIONAL WEATHER SERVICE BALTIMORE MD/WASHINGTON DC
600 AM EST THU JAN 29 2015

Note: "FAIR" indicates few or no clouds below 12,000 feet
with no significant weather and/or obstructions to visibility.
 TC=TEMPERATURE CELSIUS

 * =Non NWS site. Station does not report precipitation (e.g. rain,
    snow, etc.), thunder, or fog.

DCZ001-MDZ009-015-VAZ040>042-051-053>054-291200-
WASHINGTON METRO

CITY           SKY/WX    TMP DP  RH WIND       PRES   REMARKS
WASHINGTON NAT PTCLDY    27   8  44 CALM      30.35R
DULLES         PTCLDY    14  11  87 CALM      30.32S
ANDREWS AFB    CLEAR     19  14  80 CALM      30.32S
FT BELVOIR     PTCLDY    17  11  78 CALM      30.34S
QUANTICO       CLEAR     21  15  78 NW6       30.35F
COLLEGE PARK*  CLEAR     19  12  73 CALM      30.33S
LEESBURG*      PTCLDY    16  12  86 CALM      30.32S
MANASSAS*      PTCLDY    16  12  86 CALM      30.33S
GAITHERSBURG*  CLEAR     14   7  73 CALM      30.34S

$$

MDZ006>007-011-014-291200-
BALTIMORE METRO

CITY           SKY/WX    TMP DP  RH WIND       PRES   REMARKS
BWI AIRPORT    CLEAR     17  10  74 CALM      30.33R
MD SCIENCE CTR   N/A     26   6  42 MISG      30.33R
MARTIN STATE   CLEAR     21  10  63 CALM      30.35R
ANNAPOLIS      CLEAR     23   8  52 W3        30.34R
FORT MEADE*    CLEAR     14  12  92 CALM      30.36R

$$

MDZ012-015-019>023-291200-
MARYLAND EASTERN SHORE

CITY           SKY/WX    TMP DP  RH WIND       PRES   REMARKS
OCEAN CITY     CLEAR     21  11  65 N5        30.32S
SALISBURY      CLEAR     19  13  77 CALM      30.32S
BAY BRIDGE AP*   N/A     28  12  50 NW5       30.34R
CAMBRIDGE*     CLEAR     23  18  80 CALM      30.33R
EASTON*        CLEAR     21  16  79 CALM      30.37R

$$

MDZ017>025-291200-
SOUTHERN MARYLAND

CITY           SKY/WX    TMP DP  RH WIND       PRES   REMARKS
PATUXENT RIVER PTCLDY    19  11  70 W5        30.33S
ST INIGOES     CLEAR     21  11  65 CALM      30.33S
LEONARDTOWN*   CLEAR     18  10  73 CALM      30.34S

$$

MDZ003>005-291200-
NORTH CENTRAL MARYLAND

CITY           SKY/WX    TMP DP  RH WIND       PRES   REMARKS
FREDERICK*     NOT AVBL
HAGERSTOWN APT PTCLDY    17   5  59 E6        30.28F
WESTMINSTER*   PTCLDY    16   7  67 CALM      30.28S

$$

MDZ501>502-291200-
WESTERN MARYLAND

CITY           SKY/WX    TMP DP  RH WIND       PRES   REMARKS
OAKLAND*       NOT AVBL
CUMBERLAND*    MOCLDY    16  12  86 CALM      30.31F

$$

VAZ025>031-291200-
SHENANDOAH VALLEY

CITY           SKY/WX    TMP DP  RH WIND       PRES   REMARKS
WINCHESTER*    PTCLDY    19  12  73 CALM      30.28S
FRONT ROYAL*   FAIR      21  14  73 CALM      30.28S
LURAY*         FAIR      23  19  86 CALM      30.27F
NEW MARKET*    FAIR      17  13  85 CALM      30.27S
STAUNTON*      CLOUDY    19  15  84 CALM      30.28S
WAYNESBORO*    FAIR      19  13  79 CALM      30.25R

$$

WVZ021-048>050-054>055-291200-
EASTERN WEST VIRGINIA PANHANDLE

CITY           SKY/WX    TMP DP  RH WIND       PRES   REMARKS
MARTINSBURG    PTCLDY    13   7  77 CALM      30.29F
PETERSBURG*    CLOUDY    17  13  86 CALM      30.25F

$$

VAZ036>039-050-291200-
CENTRAL FOOTHILLS

CITY           SKY/WX    TMP DP  RH WIND       PRES   REMARKS
CHARLOTTESVILL PTCLDY    22  13  68 CALM      30.30S
CULPEPER*      CLEAR     16  12  86 CALM      30.32F
ORANGE*        PTCLDY    19  18  93 CALM      30.32F
GORDONSVILLE*  FAIR      17  14  87 CALM      30.31S
WARRENTON*     FAIR      16  16 100 CALM      30.31S

$$

VAZ055>057-291200-
NORTH AND CENTRAL PIEDMONT

CITY           SKY/WX    TMP DP  RH WIND       PRES   REMARKS
FREDERICKSBRG* CLEAR     19  15  82 CALM      30.32F
STAFFORD*      CLEAR     15  14  95 CALM      30.37S

$$

NCZ024-NYZ072-PAZ021-071-VAZ022-071-291200-
OTHER REGIONAL OBSERVATIONS

CITY           SKY/WX    TMP DP  RH WIND       PRES   REMARKS
NEW YORK CITY  PTCLDY    20   2  45 CALM      30.33R
PHILADELPHIA   PTCLDY    22   5  48 N6        30.33S
PITTSBURGH     CLOUDY    22  13  68 SE6       30.09F
ROANOKE        CLEAR     24  15  68 CALM      30.30S
RICHMOND       CLEAR     25  13  60 CALM      30.33R
RALEIGH        MOCLDY    25  16  68 CALM      30.33S

$$

ANZ530>537-291200-
MARINE OBSERVATIONS

STATION/POSITION TIME  TEMP    WIND        PRES
                       AIR SEA DIR/SP/G
                 (UTC) (F)     (DEG/KT/KT) (MB)
THOMAS PT LIGHT  1100   26 35  320/  6/  7 1028.4R
BALT KEY BRIDGE  1100   26     260/  5/  6 1027.2F
COVE POINT       1100   26     320/  5/  6 1026.9R
LEWISETTA        1100   27 35  290/  4/  4 1026.8S
SOLOMONS ISLAND  1100      37                N/A
PINEY POINT      1100           20/  5/  6   N/A

$$



USA.gov is the U.S. government's official web portal to all federal, state and local government web resources and services.